Change the Weather History Date:

Friday, April 11, 2014

  Actual Average Record
Temperature  
Mean Temperature 12 °F -  
Max Temperature 18 °F 19 °F 116 °F (1997)
Min Temperature 5 °F 7 °F -9 °F (2009)
Degree Days  
Heating Degree Days 54    
Moisture  
Dew Point 5 °F    
Average Humidity 73    
Maximum Humidity 92    
Minimum Humidity 45    
Precipitation  
Precipitation 0.00 in - - ()
Sea Level Pressure  
Sea Level Pressure 30.16 in    
Wind  
Wind Speed 2 mph (SSE)    
Max Wind Speed 4 mph    
Max Gust Speed -    
Visibility 10 miles    
Events      
Averages and records for this station are not official NWS values.
T = Trace of Precipitation, MM = Missing Value Source: NWS Daily Summary

Daily Weather History Graph

Daily Weather History Graph

Search for Another Location

Airport or City:

Trip Planner

Search our weather history database for the weather conditions in past years. The results will help you decide how hot, cold, wet, or windy it might be!

Date:

Astronomy

Apr. 11, 2014 Rise Set
Actual Time 7:47 AM AKDT 10:39 PM AKDT
Civil Twilight 6:50 AM AKDT 11:37 PM AKDT
Nautical Twilight 5:26 AM AKDT 1:03 AM AKDT
Astronomical Twilight 3:45 AM AKDT 2:40 AM AKDT
Moon 6:24 PM AKDT (4/11) 7:06 AM AKDT (4/11)
Length of Visible Light 16h 47m
Length of Day
14h 52m
Waxing Gibbous, 88% of the Moon is Illuminated
Apr 11
Waxing Gibbous
Apr 14
Full
Apr 21
Last Quarter
Apr 28
New
May 6
First Quarter

Hourly Weather History & Observations

Time (AKDT) Temp. Windchill Dew Point Humidity Pressure Visibility Wind Dir Wind Speed Gust Speed Precip Events Conditions
12:55 AM 10.2 °F - 7.2 °F 87% 30.14 in 10.0 mi North - - N/A   Clear
1:55 AM 9.5 °F - 6.1 °F 86% 30.15 in 10.0 mi North - - N/A   Clear
2:55 AM 9.5 °F - 6.4 °F 87% 30.16 in 10.0 mi North - - N/A   Clear
3:55 AM 9.9 °F - 6.8 °F 87% 30.17 in 10.0 mi North - - N/A   Clear
4:55 AM 10.9 °F - 6.3 °F 81% 30.16 in 10.0 mi North - - N/A   Clear
5:55 AM 12.0 °F - 5.4 °F 75% 30.17 in 10.0 mi North - - N/A   Clear
6:55 AM 11.7 °F - 4.5 °F 73% 30.16 in 10.0 mi North - - N/A   Clear
7:55 AM 10.0 °F - 3.9 °F 76% 30.17 in 10.0 mi North - - N/A   Clear
8:09 AM 10.4 °F - 3.2 °F 73% 30.17 in 10.0 mi SSE 2.3 mph - N/A   Clear
8:54 AM 10.4 °F - 3.2 °F 73% 30.18 in 10.0 mi SSE 2.3 mph - N/A   Clear
8:55 AM 10.6 °F - 3.4 °F 73% 30.18 in 10.0 mi North - - N/A   Clear
9:55 AM 12.2 °F - 5.0 °F 73% 30.19 in 10.0 mi SSE 1.2 mph - N/A   Clear
10:55 AM 5.0 °F -2.1 °F 3.2 °F 92% 30.19 in 10.0 mi SSE 3.5 mph - N/A   Clear
11:55 AM 10.4 °F - 3.2 °F 73% 30.19 in 10.0 mi SSE 2.3 mph - N/A   Clear
12:55 PM 11.7 °F - 3.9 °F 71% 30.20 in 10.0 mi North - - N/A   Clear
1:55 PM 13.1 °F - 4.1 °F 67% 30.20 in 10.0 mi North - - N/A   Clear
2:55 PM 13.6 °F - 4.8 °F 68% 30.20 in 10.0 mi North - - N/A   Partly Cloudy
3:55 PM 14.2 °F - 5.5 °F 69% 30.19 in 10.0 mi North - - N/A   Clear
4:55 PM 14.7 °F - 7.2 °F 72% 30.19 in 10.0 mi North - - N/A   Clear
5:55 PM 15.8 °F - 6.8 °F 68% 30.14 in 10.0 mi North - - N/A   Clear
6:55 PM 16.0 °F - 8.8 °F 73% 30.16 in 10.0 mi North - - N/A   Clear
7:55 PM 15.1 °F - 7.9 °F 73% 30.15 in 10.0 mi North - - N/A   Clear
8:55 PM 15.1 °F - 6.8 °F 70% 30.14 in 10.0 mi North - - N/A   Clear
9:55 PM 16.5 °F - 5.0 °F 61% 30.12 in 10.0 mi North - - N/A   Clear
10:55 PM 18.1 °F - 3.0 °F 52% 30.12 in 10.0 mi North - - N/A   Clear
11:55 PM 17.8 °F - -0.6 °F 45% 30.10 in 10.0 mi North - - N/A   Clear